| time (UTC) | temp F | wind direction | speed knots | gust knots | rain 1hr in | rain 24hr in | rain mn in | humidity % | barometer mb |
| 20260504001606 | 81 | 352 | 0.0 | 0.0 | 0.00 | 0.00 | 0.00 | 40 | 1009.7 |
| 20260504000108 | 80 | 278 | 0.0 | 0.9 | 0.00 | 0.00 | 0.00 | 40 | 1009.8 |
| 20260503234549 | 80 | 309 | 0.0 | 0.0 | 0.00 | 0.00 | 0.00 | 39 | 1009.9 |
| 20260503233047 | 79 | 32 | 0.0 | 3.5 | 0.00 | 0.00 | 0.00 | 39 | 1010.1 |
| 20260503231544 | 81 | 14 | 0.0 | 0.0 | 0.00 | 0.00 | 0.00 | 40 | 1010.3 |
| 20260503230041 | 81 | 9 | 0.0 | 0.0 | 0.00 | 0.00 | 0.00 | 38 | 1010.5 |
| 20260503224539 | 80 | 9 | 0.0 | 3.5 | 0.00 | 0.00 | 0.00 | 40 | 1010.8 |
| 20260503223037 | 83 | 14 | 0.0 | 0.0 | 0.00 | 0.00 | 0.00 | 37 | 1010.8 |
| 20260503221534 | 82 | 19 | 0.0 | 0.9 | 0.00 | 0.00 | 0.00 | 39 | 1011.1 |
| 20260503220031 | 79 | 8 | 0.0 | 2.6 | 0.00 | 0.00 | 0.00 | 41 | 1011.2 |
| 20260503214529 | 80 | 9 | 0.0 | 0.0 | 0.00 | 0.00 | 0.00 | 40 | 1011.3 |
| 20260503213027 | 80 | 348 | 0.0 | 0.0 | 0.00 | 0.00 | 0.00 | 40 | 1011.4 |
| 20260503211524 | 79 | 19 | 0.0 | 0.0 | 0.00 | 0.00 | 0.00 | 41 | 1011.6 |
| 20260503210021 | 78 | 278 | 0.0 | 0.0 | 0.00 | 0.00 | 0.00 | 43 | 1011.8 |
| 20260503204526 | 77 | 21 | 0.0 | 0.9 | 0.00 | 0.00 | 0.00 | 46 | 1012.0 |
| 20260503203018 | 78 | 40 | 0.0 | 2.6 | 0.00 | 0.00 | 0.00 | 43 | 1012.2 |
| 20260503201515 | 76 | 27 | 0.0 | 4.3 | 0.00 | 0.00 | 0.00 | 46 | 1012.3 |
| 20260503200013 | 76 | 329 | 0.0 | 0.9 | 0.00 | 0.00 | 0.00 | 46 | 1012.4 |
| 20260503194509 | 75 | 51 | 0.0 | 0.0 | 0.00 | 0.00 | 0.00 | 50 | 1012.6 |
| 20260503193013 | 74 | 351 | 0.0 | 2.6 | 0.00 | 0.00 | 0.00 | 50 | 1012.9 |
| 20260503191504 | 74 | 75 | 0.0 | 0.0 | 0.00 | 0.00 | 0.00 | 51 | 1013.0 |
| 20260503190004 | 74 | 1 | 0.0 | 0.0 | 0.00 | 0.00 | 0.00 | 53 | 1013.2 |
| 20260503184503 | 73 | 56 | 0.0 | 0.0 | 0.00 | 0.00 | 0.00 | 53 | 1013.2 |
| 20260503183116 | 74 | 47 | 0.0 | 0.0 | 0.00 | 0.00 | 0.00 | 53 | 1013.6 |
| 20260503181619 | 72 | 43 | 0.0 | 0.0 | 0.00 | 0.00 | 0.00 | 55 | 1013.6 |
| 20260503180052 | 70 | 6 | 0.0 | 0.9 | 0.00 | 0.00 | 0.00 | 58 | 1013.6 |
| 20260503174549 | 70 | 51 | 0.0 | 0.0 | 0.00 | 0.00 | 0.00 | 60 | 1013.8 |
| 20260503173054 | 69 | 54 | 0.0 | 0.0 | 0.00 | 0.00 | 0.00 | 59 | 1013.8 |
| 20260503171546 | 68 | 65 | 0.0 | 0.0 | 0.00 | 0.00 | 0.00 | 59 | 1013.8 |
| 20260503081528 | 63 | 43 | 0.0 | 0.0 | 0.00 | 0.00 | 0.00 | 56 | 1014.5 |
| 20260503071522 | 64 | 326 | 0.0 | 0.0 | 0.00 | 0.00 | 0.00 | 53 | 1014.3 |
| 20260503054516 | 65 | 329 | 0.0 | 0.9 | 0.00 | 0.00 | 0.00 | 54 | 1014.0 |
| 20260503053016 | 64 | 41 | 0.0 | 0.0 | 0.00 | 0.00 | 0.00 | 56 | 1014.1 |
| 20260503051520 | 65 | 22 | 0.0 | 0.0 | 0.00 | 0.00 | 0.00 | 57 | 1014.0 |
| 20260503050020 | 65 | 51 | 0.0 | 0.0 | 0.00 | 0.00 | 0.00 | 57 | 1014.0 |
| 20260503044522 | 65 | 13 | 0.0 | 0.0 | 0.00 | 0.00 | 0.00 | 57 | 1014.0 |
| 20260503043013 | 66 | 27 | 0.0 | 0.0 | 0.00 | 0.00 | 0.00 | 57 | 1013.8 |
| 20260503041513 | 66 | 27 | 0.0 | 0.0 | 0.00 | 0.00 | 0.00 | 57 | 1013.7 |
| 20260503040019 | 66 | 25 | 0.0 | 0.0 | 0.00 | 0.00 | 0.00 | 58 | 1013.5 |
| 20260503034515 | 66 | 352 | 0.0 | 0.0 | 0.00 | 0.00 | 0.00 | 59 | 1013.4 |
| 20260503033014 | 67 | 8 | 0.0 | 0.0 | 0.00 | 0.00 | 0.00 | 59 | 1013.2 |
| 20260503031511 | 67 | 9 | 0.0 | 0.0 | 0.00 | 0.00 | 0.00 | 58 | 1013.1 |
| 20260503030010 | 68 | 21 | 0.0 | 0.0 | 0.00 | 0.00 | 0.00 | 57 | 1012.9 |
| 20260503024510 | 69 | 345 | 0.0 | 0.9 | 0.00 | 0.00 | 0.00 | 56 | 1012.8 |
| 20260503023009 | 70 | 350 | 0.0 | 0.0 | 0.00 | 0.00 | 0.00 | 55 | 1012.6 |
| 20260503021507 | 71 | 357 | 0.0 | 0.0 | 0.00 | 0.00 | 0.00 | 53 | 1012.7 |
| 20260503020006 | 72 | 30 | 0.0 | 0.0 | 0.00 | 0.00 | 0.00 | 50 | 1012.7 |
| 20260503014504 | 74 | 353 | 0.0 | 0.0 | 0.00 | 0.00 | 0.00 | 50 | 1012.8 |
| 20260503013003 | 73 | 11 | 0.0 | 0.9 | 0.00 | 0.00 | 0.00 | 52 | 1012.9 |
| 20260503011501 | 74 | 1 | 0.0 | 0.0 | 0.00 | 0.00 | 0.00 | 51 | 1012.9 |
| 20260503010122 | 74 | 4 | 0.0 | 0.0 | 0.00 | 0.00 | 0.00 | 50 | 1012.9 |
| 20260503004557 | 73 | 359 | 0.0 | 0.9 | 0.00 | 0.00 | 0.00 | 50 | 1013.0 |
| 20260503003100 | 73 | 16 | 0.0 | 1.7 | 0.00 | 0.00 | 0.00 | 50 | 1013.0 |